TimeMST,TemperatureF,Dew PointF,Humidity,Sea Level PressureIn,VisibilityMPH,Wind Direction,Wind SpeedMPH,Gust SpeedMPH,PrecipitationIn,Events,Conditions,WindDirDegrees,DateUTC
12:53 AM,32.0,15.1,50,30.09,10.0,SW,17.3,-,N/A,,Clear,230,2013-01-20 07:53:00
1:53 AM,30.9,15.1,52,30.11,10.0,WSW,12.7,-,N/A,,Clear,250,2013-01-20 08:53:00
2:53 AM,30.9,14.0,50,30.15,10.0,West,11.5,-,N/A,,Clear,280,2013-01-20 09:53:00
3:53 AM,34.0,15.1,46,30.19,10.0,WNW,17.3,-,N/A,,Clear,300,2013-01-20 10:53:00
4:53 AM,30.0,17.1,59,30.26,10.0,NW,16.1,23.0,N/A,,Mostly Cloudy,320,2013-01-20 11:53:00
5:53 AM,27.0,19.9,75,30.36,10.0,NW,19.6,27.6,N/A,,Overcast,320,2013-01-20 12:53:00
6:09 AM,26.6,19.4,74,30.25,10.0,NNW,17.3,-,N/A,,Overcast,330,2013-01-20 13:09:00
6:53 AM,24.1,19.9,84,30.42,10.0,NW,16.1,23.0,N/A,,Overcast,320,2013-01-20 13:53:00
7:25 AM,21.2,19.4,93,30.29,5.0,NNW,17.3,-,0.00,Snow,Light Snow,340,2013-01-20 14:25:00
7:53 AM,21.9,19.0,89,30.44,4.0,NW,19.6,-,0.00,Snow,Light Snow,320,2013-01-20 14:53:00
8:17 AM,21.2,17.6,86,30.32,10.0,NNW,15.0,-,0.00,,Overcast,330,2013-01-20 15:17:00
8:32 AM,21.2,17.6,86,30.32,9.0,NNW,12.7,-,0.00,,Overcast,330,2013-01-20 15:32:00
8:41 AM,21.2,19.4,93,30.33,7.0,NNW,10.4,-,0.00,,Overcast,340,2013-01-20 15:41:00
8:50 AM,21.2,17.6,86,30.33,7.0,NNW,18.4,-,0.00,,Overcast,330,2013-01-20 15:50:00
8:53 AM,21.0,17.1,85,30.47,6.0,NNW,18.4,-,0.00,,Overcast,330,2013-01-20 15:53:00
9:53 AM,21.0,16.0,81,30.46,10.0,North,15.0,-,0.00,,Overcast,350,2013-01-20 16:53:00
10:28 AM,21.2,15.8,80,30.34,10.0,North,15.0,-,N/A,,Overcast,360,2013-01-20 17:28:00
10:53 AM,21.0,15.1,78,30.48,10.0,NNW,12.7,-,N/A,,Overcast,330,2013-01-20 17:53:00
11:53 AM,21.9,15.1,75,30.43,10.0,NW,8.1,-,N/A,,Overcast,310,2013-01-20 18:53:00
12:53 PM,21.9,15.1,75,30.41,10.0,NNW,9.2,-,N/A,,Overcast,330,2013-01-20 19:53:00
1:53 PM,21.9,14.0,72,30.40,10.0,NW,11.5,-,N/A,,Overcast,320,2013-01-20 20:53:00
2:53 PM,21.9,15.1,75,30.38,10.0,NNW,6.9,-,N/A,,Overcast,340,2013-01-20 21:53:00
3:53 PM,21.0,15.1,78,30.37,10.0,NW,8.1,-,N/A,,Overcast,320,2013-01-20 22:53:00
4:53 PM,19.9,15.1,81,30.38,10.0,NNW,4.6,-,N/A,,Overcast,340,2013-01-20 23:53:00
5:33 PM,17.6,12.2,79,30.25,10.0,WNW,6.9,-,N/A,,Scattered Clouds,300,2013-01-21 00:33:00
5:53 PM,17.1,12.9,84,30.40,10.0,WNW,6.9,-,N/A,,Clear,300,2013-01-21 00:53:00
6:53 PM,15.1,12.0,88,30.42,10.0,NW,6.9,-,N/A,,Clear,310,2013-01-21 01:53:00
7:18 PM,15.8,12.2,86,30.25,10.0,WNW,9.2,-,N/A,,Mostly Cloudy,290,2013-01-21 02:18:00
7:53 PM,17.1,14.0,88,30.41,10.0,West,5.8,-,N/A,,Overcast,280,2013-01-21 02:53:00
8:53 PM,19.0,14.0,81,30.41,10.0,WNW,6.9,-,N/A,,Overcast,300,2013-01-21 03:53:00
9:53 PM,18.0,14.0,84,30.40,10.0,WNW,5.8,-,N/A,,Overcast,290,2013-01-21 04:53:00
10:53 PM,16.0,14.0,92,30.41,10.0,North,6.9,-,N/A,,Overcast,10,2013-01-21 05:53:00
11:53 PM,15.1,12.9,91,30.38,10.0,Calm,Calm,-,N/A,,Overcast,0,2013-01-21 06:53:00